Snowfall_Accumulation
1.5 1.7 2.1 1.8 1.7 2.0 2.6 4.0 6.3 5.2 1.4 0.4 0.3 0.1 0.0 0.1 0.0 0.1 0.1 0.1 0.2 0.4 0.6 0.4 0.3 0.3 0.2 0.1 0.1 0.2 0.2 0.0 0.0 0.0 0.0 0.0 0.0 0.0
1.9 2.2 2.3 2.2 2.2 2.1 2.5 2.8 3.9 5.5 3.7 0.5 0.3 0.1 0.0 0.0 0.0 0.0 0.0 0.1 0.2 0.3 0.3 0.4 0.3 0.2 0.2 0.2 0.1 0.2 0.2 0.1 0.0 0.0 0.0 0.0 0.0 0.0
2.1 2.2 2.4 2.5 3.0 2.1 2.1 2.4 2.7 3.7 4.5 0.9 0.3 0.1 0.0 0.0 0.0 0.0 0.0 0.0 0.0 0.0 0.1 0.2 0.3 0.3 0.3 0.3 0.2 0.2 0.2 0.1 0.0 0.0 0.0 0.0 0.0 0.0
2.6 2.7 2.7 2.9 3.2 2.2 2.2 2.5 2.4 2.3 3.6 2.6 0.5 0.2 0.1 0.1 0.1 0.1 0.0 0.0 0.0 0.0 0.1 0.2 0.3 0.3 0.3 0.3 0.3 0.2 0.2 0.1 0.1 0.1 0.0 0.0 0.0 0.0
3.0 3.5 3.2 3.4 3.2 2.7 2.5 2.8 2.5 2.0 2.4 3.0 1.5 0.4 0.2 0.1 0.2 0.1 0.1 0.2 0.0 0.0 0.1 0.1 0.2 0.2 0.3 0.3 0.3 0.2 0.3 0.1 0.1 0.1 0.1 0.1 0.1 0.0
2.5 2.9 3.8 4.2 4.2 4.2 4.2 3.7 3.3 3.5 3.2 3.3 2.5 1.4 1.0 0.7 0.9 1.3 1.1 0.8 0.7 0.4 0.3 0.1 0.2 0.3 0.3 0.4 0.4 0.5 0.5 0.4 0.4 0.4 0.3 0.2 0.2 0.2
2.1 2.3 3.4 4.0 4.4 5.7 6.4 6.1 5.8 6.3 5.9 5.8 4.6 3.5 2.6 2.3 2.5 1.8 2.3 1.4 0.9 0.6 0.7 0.7 0.6 0.4 0.1 0.1 0.1 0.2 0.3 0.3 0.4 0.4 0.4 0.4 0.4 0.3
2.3 2.2 2.9 5.0 5.8 4.5 5.2 5.6 6.5 8.7 9.7 9.1 7.8 6.2 4.1 3.1 2.6 3.0 4.0 4.5 3.6 0.9 1.3 1.2 0.9 1.0 0.5 0.4 0.1 0.2 0.3 0.5 0.6 0.6 0.6 0.6 0.6 0.5
2.2 2.1 2.5 3.6 4.7 5.8 6.0 5.0 5.2 5.4 7.3 9.7 10.7 7.3 5.3 3.8 4.5 5.3 4.9 5.7 5.0 2.8 2.2 3.2 1.4 1.8 0.8 0.2 0.2 0.3 0.5 0.7 0.7 0.8 0.8 0.8 0.8 0.8
2.0 1.8 1.7 2.4 3.7 5.4 6.7 6.5 5.9 6.4 8.1 9.3 11.4 9.5 6.4 4.7 6.4 7.9 7.9 7.9 4.6 2.1 2.1 5.3 2.0 1.8 1.3 0.5 0.3 0.5 0.5 0.6 0.7 0.9 0.9 1.0 1.0 1.0
2.1 1.7 1.3 1.6 2.9 4.6 5.4 5.6 4.6 5.1 6.0 7.6 7.9 8.2 6.3 5.7 5.6 8.7 10.8 12.8 10.1 3.8 2.2 4.7 2.7 2.5 2.2 1.7 1.0 0.3 0.4 0.5 0.6 0.7 1.0 1.1 1.2 1.2
2.0 1.8 1.6 2.3 2.8 3.6 4.3 5.5 6.9 5.7 5.0 4.9 4.9 4.5 4.5 5.1 4.5 7.5 9.6 12.6 11.8 8.6 3.0 4.7 3.9 4.7 5.4 2.3 1.8 1.3 0.7 0.4 0.4 0.5 0.7 0.8 1.1 1.1
2.8 2.3 1.6 2.3 2.8 2.8 3.1 4.6 7.2 5.5 4.5 5.2 5.1 4.4 4.2 5.2 6.5 8.1 8.8 10.4 12.1 10.7 5.9 7.0 7.3 6.2 7.9 6.3 3.5 1.9 0.9 0.8 0.5 0.3 0.3 0.5 0.8 1.1
3.5 2.3 1.8 2.2 2.3 2.1 2.5 2.8 3.3 3.6 4.8 4.9 4.7 4.5 4.7 5.7 7.2 8.7 10.7 13.1 11.8 10.0 5.9 7.6 11.1 9.4 10.1 8.1 5.2 3.5 2.1 0.9 0.8 0.7 0.5 0.7 0.7 0.8
4.1 3.2 2.2 2.4 2.3 2.1 2.0 2.2 2.8 4.0 5.3 6.0 5.4 4.4 4.8 5.6 6.4 7.1 8.1 9.5 9.1 7.3 5.4 5.0 8.1 9.2 10.3 10.1 5.9 3.5 3.1 1.7 1.2 0.9 1.2 1.2 1.2 1.1
4.2 3.2 2.3 2.2 2.3 1.9 1.8 2.1 2.3 3.2 4.8 5.7 5.3 4.3 3.9 4.8 5.7 7.1 8.4 9.0 9.8 8.5 6.2 4.5 5.2 7.9 9.4 6.9 6.0 4.6 3.1 3.6 2.4 1.7 1.9 1.6 1.3 1.3
5.6 5.1 4.2 3.8 3.5 2.8 2.3 2.1 2.3 2.6 3.5 3.9 4.8 5.0 5.0 5.2 5.6 6.2 8.2 9.4 11.2 11.6 10.4 7.0 7.7 6.7 6.5 6.6 7.4 4.7 2.9 2.7 2.6 2.5 2.8 2.5 1.5 1.2
5.8 7.0 5.0 4.1 4.4 4.0 3.5 3.0 3.0 3.0 3.2 3.9 5.1 5.5 5.7 6.1 6.1 5.7 7.1 9.3 11.0 11.8 11.9 10.7 10.9 10.8 9.3 8.9 6.8 5.2 3.6 3.4 3.2 3.2 3.2 3.8 3.0 1.3
5.7 5.3 4.2 4.0 4.1 4.1 3.8 3.8 3.6 3.1 3.3 4.2 4.8 5.1 5.3 6.0 6.2 6.5 7.1 8.1 9.6 10.9 11.7 10.8 11.7 13.5 13.9 15.3 13.0 5.2 4.9 4.5 3.8 3.7 3.2 3.7 3.9 2.3
3.9 4.4 4.6 4.4 4.6 4.7 4.4 4.4 3.8 3.4 3.6 3.8 3.9 4.3 5.0 6.1 6.3 6.3 6.7 8.0 9.1 10.1 11.0 11.1 12.1 14.0 15.5 14.3 14.2 10.4 4.7 5.2 5.5 5.6 4.5 3.4 2.9 1.6
4.1 4.1 4.4 4.7 5.3 5.3 4.8 4.5 3.9 3.8 3.6 3.9 3.9 4.3 4.5 5.8 6.3 5.9 6.4 7.1 8.3 9.9 11.0 11.4 11.6 12.1 13.3 13.0 13.4 12.0 10.0 6.0 4.2 5.3 5.3 5.8 5.3 4.1
4.5 4.4 4.3 4.8 5.4 5.6 5.0 4.6 4.0 3.7 3.4 3.7 3.7 3.8 4.3 5.4 6.0 6.0 6.4 7.2 7.9 8.8 10.0 10.6 10.2 11.4 14.1 14.3 13.7 11.5 11.2 9.8 6.8 4.4 4.1 4.3 7.6 8.6
5.2 4.8 4.8 4.9 5.0 5.3 5.5 4.8 4.1 3.7 3.3 3.7 3.9 3.8 4.1 5.0 5.2 5.6 6.2 6.8 7.5 8.0 9.0 10.8 11.8 12.1 13.4 13.9 13.5 12.2 10.9 9.7 9.1 7.4 6.7 3.3 2.5 2.7